Location: Maccacari
(45.1333°N, 11.1333°E)
Time: 08:09:23
(UTC+00:00)

SPOT 3 Rocket - Pass Details

Date: 18 September 2020
Orbit: 780 x 794 km, 98.7° (Epoch: 29 October)

Event Time Altitude Azimuth Distance (km) Brightness Sun altitude
Exits shadow 20:03:36 48° 225° (SW) 1,011 4.1 -27.9°
Maximum altitude 20:04:27 54° 259° (W) 946 4.1 -28.0°
Drops below altitude 10° 20:09:30 10° 337° (NNW) 2,343 6.7 -28.8°
Sets 20:11:53 0° 342° (NNW) 3,276 7.5 -29.1°
